Find Starlink 3246

NORAD ID: 49732 Int'l Des: 2021-115 Owner: SPXS Country: US Constellation: starlink operational
LEOCIRCULAR

リアルタイム位置

3D地球を読み込み中...

Starlink 3246について

説明を読み込み中...

次回通過

Passes for default location (London). Set your location on the main map for personalized predictions.

高度履歴

Loading altitude history...

軌道要素

1 49732U 21115J 26125.76948036 .00000699 00000-0 61964-4 0 9998
2 49732 53.2181 263.0352 0001232 83.1016 277.0117 15.08846660244004
Epoch: May 5, 2026 • Age: 17 hours

現在のステータス

高度 542.7 km
速度 7.59 km/s
衛星直下点 -10.55°S, 150.99°W
打ち上げ日 Dec 2, 2021
運用期間 4.4 years
タイプ internet

技術仕様

分類 Payload
質量 290.00 kg
乾燥質量 270.00 kg
総質量 290.00 kg
長さ 0.20 m
直径 2.80 m
スパン 9.00 m
形状 Box + pan
製造者 SPXS
バスタイプ Starlink
フェーズステータス In Orbit
所有者/国 SPXS/US

Most Searched